Tracking 18852 objects as of 23-Nov-2017
HD Live streaming from Space Station
objects crossing your sky now

METEOR 1-12

Track METEOR 1-12 now!
10-day predictions
METEOR 1-12 is classified as:


NORAD ID: 6079
Int'l Code: 1972-049A
Perigee: 882.9 km
Apogee: 897.8 km
Inclination: 81.2 °
Period: 102.6 minutes
Semi major axis: 7261 km
RCS: 4.3297 m2 (large)
Launch date: June 30, 1972
Source: Commonwealth of Independent States (former USSR) (CIS)
Launch site: PLESETSK MISSILE AND SPACE COMPLEX (PKMTR)
aabbcc
Your satellite tracking list
Your tracking list is empty




NASA's NSSDC Master Catalog

Two Line Element Set (TLE):
1  6079U 72049A   17326.57753534 -.00000032 +00000-0 -28476-4 0  9990
2  6079 081.2245 124.1611 0010235 218.9138 141.1294 14.03066268322336
Source of the keplerian elements: AFSPC